GW1838 Weather Reports


time (UTC)temp
C
wind
direction
speed
KPH
gust
KPH
rain 1hr
cm
rain 24hr
cm
rain mn
cm
humidity
%
barometer
mb
20260903050804 23 123 0.0 0.0 0.00 0.00 0.00 91 1016.4
20260903045306 23 123 0.0 0.0 0.00 0.00 0.00 90 1016.6
20260903044804 23 123 0.0 0.0 0.00 0.00 0.00 90 1016.6
20260903044304 23 123 0.0 0.0 0.00 0.00 0.00 90 1016.8
20260903043804 23 123 0.0 0.0 0.00 0.00 0.00 90 1016.7
20260903043304 23 123 0.0 0.0 0.00 0.00 0.00 90 1016.7
20260903042804 23 123 0.0 0.0 0.00 0.00 0.00 90 1016.7
20260903042306 23 123 0.0 3.2 0.00 0.00 0.00 90 1016.8
20260903040836 23 115 1.6 3.2 0.00 0.00 0.00 90 1016.9
20260903035805 23 109 3.2 4.8 0.00 0.00 0.00 90 1016.8
20260903034304 23 131 3.2 8.0 0.00 0.00 0.00 90 1016.5
20260903033304 23 144 4.8 9.7 0.00 0.00 0.00 90 1016.4
20260903032804 23 143 3.2 9.7 0.00 0.00 0.00 90 1016.5
20260903030304 23 124 9.7 20.9 0.00 0.00 0.00 90 1016.7
20260903025306 23 109 8.0 19.3 0.00 0.00 0.00 90 1016.7
20260903023805 23 116 9.7 16.1 0.00 0.00 0.00 90 1016.6
20260903021804 23 118 9.7 19.3 0.00 0.03 0.00 89 1016.7
20260903014304 23 109 11.3 19.3 0.00 0.08 0.00 88 1017.2
20260903013805 23 105 11.3 19.3 0.00 0.13 0.00 88 1017.2
20260903013304 23 102 14.5 20.9 0.00 0.15 0.00 88 1017.3
20260903012306 23 91 8.0 19.3 0.00 0.41 0.00 87 1017.7
20260903011809 23 105 11.3 19.3 0.00 1.19 0.00 87 1017.6
20260903010804 23 104 9.7 14.5 0.00 2.87 0.00 87 1017.5
20260903010304 23 105 11.3 19.3 0.00 3.23 0.00 87 1017.5
20260903005805 23 102 9.7 16.1 0.00 3.61 0.00 87 1017.6
20260903005306 23 98 9.7 14.5 0.00 3.96 0.00 87 1017.6
20260903004304 23 98 9.7 19.3 0.00 4.24 0.00 87 1017.5
20260903003304 23 102 9.7 16.1 0.00 4.34 0.00 87 1017.2
20260903002306 23 102 8.0 19.3 0.00 4.37 0.00 87 1017.0
20260903001804 23 101 8.0 19.3 0.00 4.42 0.00 87 1017.0
20260903001304 23 104 14.5 19.3 0.00 4.42 0.00 86 1016.9
20260903000304 23 108 11.3 19.3 0.00 4.42 0.00 86 1016.9
20260902235306 23 101 14.5 19.3 0.00 4.42 0.00 86 1016.7
20260902234804 23 102 11.3 19.3 0.00 4.42 0.00 86 1016.6
20260902233804 23 90 14.5 20.9 0.00 4.42 0.00 86 1016.6
20260902233303 23 101 11.3 20.9 0.00 4.42 0.00 86 1016.6
20260902231303 23 89 11.3 20.9 0.00 4.42 0.00 85 1016.8
20260902230804 23 95 11.3 20.9 0.00 4.42 0.00 85 1016.7
20260902230304 23 88 12.9 20.9 0.00 4.42 0.00 85 1016.7
20260902224803 23 97 14.5 22.5 0.00 4.42 0.00 85 1017.1
20260902223803 23 99 12.9 20.9 0.00 4.42 0.00 85 1017.2
20260902222803 23 80 11.3 19.3 0.00 4.42 0.00 85 1017.5
20260902221804 23 74 8.0 22.5 0.00 4.42 0.00 85 1017.6
20260902221304 23 95 11.3 19.3 0.00 4.42 0.00 84 1017.6
20260902214808 23 99 9.7 16.1 0.00 4.42 0.00 84 1017.8
20260902214307 23 95 9.7 16.1 0.00 4.42 0.00 84 1017.7
20260902213807 23 97 9.7 19.3 0.00 4.42 0.00 84 1017.8
20260902213307 23 106 8.0 14.5 0.00 4.42 0.00 84 1017.8
20260902212813 23 82 8.0 19.3 0.00 4.42 0.00 84 1017.8
20260902211307 23 81 9.7 19.3 0.00 4.42 0.00 83 1017.4
20260902204808 23 87 8.0 16.1 0.00 4.42 0.00 83 1017.3
20260902204307 23 98 11.3 19.3 0.00 4.42 0.00 84 1017.2
20260902203808 23 100 11.3 16.1 0.00 4.42 0.00 83 1017.3
20260902203307 23 101 11.3 19.3 0.00 4.42 0.00 83 1017.3
20260902202807 23 103 11.3 16.1 0.00 4.42 0.00 83 1017.4
20260902201808 23 96 9.7 19.3 0.00 4.42 0.00 83 1017.6
20260902200808 23 104 9.7 16.1 0.00 4.42 0.00 83 1017.7
20260902195308 24 106 8.0 16.1 0.00 4.42 0.00 82 1017.7
20260902194807 24 87 8.0 16.1 0.00 4.42 0.00 82 1017.8
20260902193808 24 94 4.8 11.3 0.00 4.42 0.00 82 1017.9
20260902193307 24 95 8.0 16.1 0.00 4.42 0.00 81 1017.7
20260902192808 24 81 4.8 14.5 0.00 4.42 0.00 82 1017.8
20260902192307 24 103 9.7 16.1 0.00 4.42 0.00 82 1017.8
20260902191308 24 104 9.7 14.5 0.00 4.42 0.00 81 1018.0
20260902190807 24 105 11.3 19.3 0.00 4.42 0.00 81 1018.2
20260902190307 24 103 8.0 16.1 0.00 4.42 0.00 80 1018.3
20260902185308 24 104 9.7 16.1 0.00 4.42 0.00 80 1018.4
20260902184307 25 102 8.0 12.9 0.00 4.42 0.00 80 1018.0
20260902181807 25 77 4.8 12.9 0.00 4.42 0.00 78 1018.7
20260902181307 25 89 8.0 19.3 0.00 4.42 0.00 78 1018.7
20260902175808 25 78 9.7 19.3 0.00 4.42 0.00 78 1018.9
20260902173808 25 69 11.3 19.3 0.00 4.42 0.00 78 1018.5
20260902173308 25 70 9.7 19.3 0.00 4.42 0.00 79 1018.5
20260902172808 25 73 9.7 19.3 0.00 4.42 0.00 79 1018.5
20260902172308 25 101 11.3 19.3 0.00 4.42 0.00 78 1018.5
20260902171807 25 80 9.7 19.3 0.00 4.42 0.00 79 1018.4
20260902170808 25 90 11.3 19.3 0.00 4.42 0.00 78 1018.4
20260902170308 25 72 9.7 19.3 0.00 4.42 0.00 79 1018.6
20260902164807 25 68 8.0 19.3 0.00 4.42 0.00 79 1018.7
20260902162307 25 74 9.7 16.1 0.00 4.42 0.00 78 1018.6
20260902161307 25 99 11.3 19.3 0.00 4.42 0.00 78 1018.6
20260902160807 25 99 11.3 20.9 0.00 4.42 0.00 78 1018.6
20260902155307 25 96 14.5 24.1 0.00 4.42 0.00 79 1018.5
20260902153807 25 93 9.7 22.5 0.00 4.42 0.00 79 1018.5
20260902153307 25 93 12.9 20.9 0.00 4.42 0.00 80 1018.6
20260902145307 25 97 12.9 24.1 0.00 4.42 0.00 81 1018.9
20260902144307 24 95 11.3 24.1 0.00 4.42 0.00 83 1018.6
20260902142807 24 99 12.9 20.9 0.00 4.42 0.00 84 1018.8
20260902140807 24 93 9.7 19.3 0.00 4.42 0.00 84 1018.8
20260902140307 24 93 11.3 19.3 0.00 4.42 0.00 84 1018.7
20260902135307 24 98 9.7 19.3 0.00 4.42 0.00 85 1018.4
20260902133807 23 89 12.9 22.5 0.00 4.42 0.00 86 1018.2
20260902132807 23 93 11.3 19.3 0.00 4.42 0.00 87 1018.0
20260902131807 23 96 12.9 22.5 0.00 4.42 0.00 88 1018.0
20260902131307 23 91 11.3 22.5 0.00 4.42 0.00 88 1017.9
20260902130307 23 92 9.7 19.3 0.00 4.42 0.00 88 1017.8
20260902125307 23 95 14.5 19.3 0.00 4.42 0.00 88 1017.9
20260902124309 23 94 11.3 19.3 0.00 4.42 0.00 88 1018.0
20260902123807 23 87 9.7 19.3 0.00 4.42 0.00 89 1017.9
20260902122307 23 92 11.3 19.3 0.00 4.42 0.00 90 1017.8
20260902120307 22 86 9.7 22.5 0.00 4.42 0.00 90 1017.9
20260902115309 22 82 11.3 20.9 0.00 4.42 0.00 90 1017.7
20260902113808 22 79 9.7 19.3 0.00 4.42 0.00 90 1017.7
20260902112307 22 69 9.7 19.3 0.00 4.42 0.00 91 1017.8
20260902110807 22 93 8.0 19.3 0.00 4.42 0.00 90 1017.7
20260902110307 22 82 9.7 19.3 0.00 4.42 0.00 90 1017.6
20260902103807 23 71 11.3 20.9 0.00 4.42 0.00 89 1017.5
20260902103307 23 83 12.9 22.5 0.00 4.42 0.00 89 1017.5
20260902102807 23 96 11.3 22.5 0.00 4.42 0.00 89 1017.5
20260902102308 23 86 9.7 24.1 0.00 4.42 0.00 89 1017.4
20260902101807 23 75 9.7 20.9 0.00 4.42 0.00 89 1017.4
20260902101307 23 70 11.3 22.5 0.00 4.42 0.00 89 1017.4
20260902100807 23 70 11.3 20.9 0.00 4.42 0.00 89 1017.3
20260902094807 23 73 9.7 16.1 0.00 4.42 0.00 89 1017.0
20260902094307 23 62 11.3 22.5 0.00 4.42 0.00 89 1016.9
20260902093807 23 72 11.3 20.9 0.00 4.42 0.00 89 1016.8
20260902092808 23 87 12.9 19.3 0.00 4.42 0.00 90 1016.7
20260902091308 23 73 11.3 19.3 0.00 4.42 0.00 90 1016.6
20260902085807 23 56 11.3 19.3 0.00 4.42 0.00 90 1016.5
20260902085306 23 88 9.7 19.3 0.00 4.42 0.00 90 1016.5
20260902082808 23 88 11.3 19.3 0.00 4.42 0.00 91 1016.4
20260902080307 23 65 11.3 20.9 0.00 4.42 0.00 91 1016.0
20260902075807 23 76 12.9 22.5 0.00 4.42 0.00 91 1016.1
20260902074806 23 69 12.9 20.9 0.00 4.42 0.00 91 1016.2
20260902074307 23 69 11.3 20.9 0.00 4.42 0.00 91 1016.2
20260902073307 23 79 9.7 20.9 0.00 4.42 0.00 92 1016.1
20260902072807 23 53 9.7 20.9 0.00 4.42 0.00 92 1016.0
20260902072309 23 65 9.7 19.3 0.00 4.42 0.00 92 1016.0
20260902071307 23 58 12.9 19.3 0.00 4.42 0.00 92 1015.9
20260902070807 23 65 12.9 19.3 0.00 4.42 0.00 92 1015.9
20260902070307 23 58 9.7 19.3 0.00 4.42 0.00 92 1015.9
20260902065807 23 54 14.5 25.7 0.00 4.42 0.00 92 1015.8
20260902063807 23 60 9.7 19.3 0.00 4.42 0.00 92 1015.9
20260902062807 23 70 11.3 22.5 0.00 4.42 0.00 93 1015.7
20260902061807 23 59 14.5 22.5 0.00 4.42 0.00 93 1015.6
20260902061307 23 54 9.7 20.9 0.00 4.42 0.00 93 1015.6
20260902060807 23 54 9.7 19.3 0.00 4.42 0.00 93 1015.7
20260902055807 23 37 9.7 22.5 0.00 4.42 0.00 93 1015.6
20260902053807 23 64 9.7 24.1 0.00 4.42 0.00 93 1015.7
20260902053307 23 70 12.9 24.1 0.00 4.42 0.00 93 1015.6
20260902051807 23 41 11.3 24.1 0.00 4.42 0.00 93 1015.7